Location: Ch�ze
(42.9000°N, 0.0333°W)
Time: 00:15:08
(UTC+00:00)

Helios 1A Rocket - Pass Details

Date: 24 January 2021
Orbit: 562 x 587 km, 98.3° (Epoch: 24 February)

Event Time Altitude Azimuth Distance (km) Brightness Sun altitude
Rises 18:45:34 0° 162° (SSE) 2,799 6.3 -18.8°
Reaches altitude 10° 18:47:42 10° 161° (SSE) 1,905 5.5 -19.2°
Maximum altitude 18:51:50 79° 74° (ENE) 604 2.8 -19.9°
Drops below altitude 10° 18:56:00 10° 349° (N) 1,921 5.6 -20.7°
Sets 18:58:10 0° 348° (NNW) 2,824 6.5 -21.1°
